Location: Gradaro
(45.0833°N, 10.8833°E)
Time: 14:28:36
(UTC+00:00)

SJ 16-02 - Pass Details

Date: 29 November 2020
Orbit: 606 x 616 km, 75.0° (Epoch: 25 January)

Event Time Altitude Azimuth Distance (km) Brightness Sun altitude
Exits shadow 03:09:04 17° 61° (ENE) 1,552 3.9 -35.3°
Drops below altitude 10° 03:10:34 10° 45° (NE) 1,984 4.4 -35.0°
Sets 03:13:08 0° 32° (NNE) 2,895 5.2 -34.6°
